Back to catalog

ONEWEB-0586

AliveCommunicationsPO
NORAD 54653·PAYLOAD·🇬🇧 United Kingdom

Launched Dec 8, 2022 from Cape Canaveral Space Force Station

Loading…

Next Passes (next 24 hours)

TLE

FreshSource: CelesTrak SupGP

Epoch: Sep 14, 2026, 13:04 UTC

1 54653C 22166M   26257.54493472 -.00001352  00000+0 -32782-2 0  2573
2 54653  87.9276 226.2065 0002349  87.7967  21.6106 13.21826815    13

Track ONEWEB-0586 in real time with AllMySat

Download on the App Store